Racecast

WIAA D1 Sectional - Onalaska

Maple Grove Golf Course · 5000m · Boys · Compiled · WI

83 runners from 1 division

These divisions were run separately. This is how their times compare, not how they finished — the places and scores below were never contested.

View full meet →

Team scores

Place Team Points 12345 67
1 Onalaska (WI) 23 1 2 4 5 11 31 36
2 Hudson (WI) 91 12 16 20 21 22 24 69
3 River Falls (WI) 108 8 14 26 27 33 61 72
4 Holmen (WI) 114 9 19 23 25 38 56 60
5 Eau Claire Memorial (WI) 130 6 7 30 39 48 75
6 Chippewa Falls (WI) 151 3 15 40 44 49 52 67
7 Menomonie (WI) 163 17 32 34 35 45 50 65
8 Eau Claire North (WI) 172 18 29 37 42 46 57 71
9 New Richmond (WI) 218 13 47 51 53 54 59 70
10 Superior (WI) 260 28 41 62 63 66 68 74
11 La Crosse Central (WI) 282 10 55 64 76 77 78 80
12 Sparta (WI) 334 43 58 73 79 81 82 83

Results

Place Athlete Grade School Time Rating Points Actual race
1 Manny Putz 9 Onalaska (WI) 1 15:47.9 133.1 1 1
2 Ron Walters 12 Onalaska (WI) 2 16:07.5 130.4 2 2
3 Lukas Wagner 12 Chippewa Falls (WI) 1 16:17.7 129.1 3 3
4 Austin Oyen 12 Onalaska (WI) 3 16:26.5 127.9 4 4
5 Tyler Lee 12 Onalaska (WI) 4 16:29.6 127.5 5 5
6 Will Sylvester 10 Eau Claire Memorial (WI) 1 16:29.6 127.5 6 6
7 Colin Hanson 11 Eau Claire Memorial (WI) 2 16:31.0 127.3 7 7
8 Quinlan Andrews 9 River Falls (WI) 1 16:35.0 126.8 8 8
9 Cameron Lamere 12 Holmen (WI) 1 16:36.7 126.6 9 9
10 Wesley Barnhart 11 La Crosse Central (WI) 1 16:48.9 125.1 10 10
11 Blake Burnstad 10 Onalaska (WI) 5 16:54.7 124.4 11 11
12 Henry Czupryna 12 Hudson (OH) 1 16:58.6 123.9 12 12
13 Jacob Doehrmann 12 New Richmond (WI) 1 17:02.3 123.4 13 13
14 Dustin Sheely 12 River Falls (WI) 2 17:07.4 122.8 14 14
15 Ryan Beranek 12 Chippewa Falls (WI) 2 17:10.1 122.5 15 15
16 Addisu Haverly 10 Hudson (OH) 2 17:12.0 122.3 16 16
17 Jude Ogden 12 Menomonie (WI) 1 17:21.3 121.2 17 17
18 Ty Jacobs 11 Eau Claire North (WI) 1 17:26.2 120.6 18 18
19 Gillie Suarez 11 Holmen (WI) 2 17:26.8 120.6 19 19
20 Brock Bjerke 10 Hudson (OH) 3 17:28.0 120.4 20 20
21 Taggert Ruedebusch 10 Hudson (OH) 4 17:28.5 120.4 21 21
22 Noah Lawrence 10 Hudson (OH) 5 17:29.2 120.3 22 22
23 Nathan Novak 11 Holmen (WI) 3 17:32.8 119.9 23 23
24 Ethan Eilertson 10 Hudson (OH) 6 17:33.0 119.8 24 24
25 Ethan Archer 10 Holmen (WI) 4 17:36.9 119.4 25 25
26 Lucas Nogle 12 River Falls (WI) 3 17:38.0 119.3 26 26
27 Nathaniel Fosler 11 River Falls (WI) 4 17:40.7 119.0 27 27
28 Jacob Lind 10 Superior (WI) 1 17:42.3 118.8 28 28
29 Titus Frock 11 Eau Claire North (WI) 2 17:43.0 118.7 29 29
30 Parker Dewey 10 Eau Claire Memorial (WI) 3 17:44.0 118.6 30 30
31 Nick Rudrud 11 Onalaska (WI) 6 17:46.6 118.3 31 31
32 Dylan Norby 11 Menomonie (WI) 2 17:50.6 117.9 32 32
33 Samuel Shaw 12 River Falls (WI) 5 17:50.8 117.8 33 33
34 Logan McCoy 12 Menomonie (WI) 3 17:52.2 117.7 34 34
35 Grant Burns 9 Menomonie (WI) 4 17:53.0 117.6 35 35
36 Jesse DeChambeau 12 Onalaska (WI) 7 17:54.6 117.4 36 36
37 Jayden Ashley 12 Eau Claire North (WI) 3 17:57.0 117.2 37 37
38 Kenton Newman 12 Holmen (WI) 5 18:01.8 116.7 38 38
39 Owen Johnson 12 Eau Claire Memorial (WI) 4 18:03.5 116.5 39 39
40 Benjamin Cihasky 10 Chippewa Falls (WI) 3 18:06.6 116.1 40 40
41 Shane Leask 12 Superior (WI) 2 18:07.4 116.1 41 41
42 Aidan Ecker 10 Eau Claire North (WI) 4 18:07.6 116.0 42 42
43 Braydon Siekert 11 Sparta (MI) 1 18:09.2 115.9 43 43
44 Kansas Smith 11 Chippewa Falls (WI) 4 18:10.2 115.8 44 44
45 Carter Davis 11 Menomonie (WI) 5 18:10.6 115.7 45 45
46 Dylan Mantuefel 12 Eau Claire North (WI) 5 18:11.3 115.6 46 46
47 Aidan Johnson 12 New Richmond (WI) 2 18:12.3 115.5 47 47
48 Isaac Mangrum 10 Eau Claire Memorial (WI) 5 18:15.1 115.2 48 48
49 Jake Mason 11 Chippewa Falls (WI) 5 18:19.5 114.8 49 49
50 Ray Ebert 11 Menomonie (WI) 6 18:20.1 114.7 50 51
51 Noah Hughes 12 New Richmond (WI) 3 18:21.7 114.6 51 52
52 Chase Kline 11 Chippewa Falls (WI) 6 18:22.5 114.5 52 53
53 Mason Hughes 10 New Richmond (WI) 4 18:22.7 114.4 53 54
54 Konrad Knutson 9 New Richmond (WI) 5 18:23.8 114.3 54 55
55 Jacob San Miguel 12 La Crosse Central (WI) 2 18:24.1 114.3 55 56
56 Dylan Whiteaker 9 Holmen (WI) 6 18:25.0 114.2 56 57
57 Walker Vaver 10 Eau Claire North (WI) 6 18:27.3 114.0 57 58
58 Vaughn Rice 12 Sparta (MI) 2 18:27.9 113.9 58 59
59 Noah Herron 11 New Richmond (WI) 6 18:28.9 113.8 59 60
60 Samuel Horman 10 Holmen (WI) 7 18:30.5 113.6 60 61
61 Collin Jalowitz 10 River Falls (WI) 6 18:31.9 113.5 61 62
62 Kanayoliseh Onwudiegwu 10 Superior (WI) 3 18:35.1 113.2 62 63
63 Bryson Craker 12 Superior (WI) 4 18:36.3 113.1 63 64
64 Gabriel Wood 11 La Crosse Central (WI) 3 18:36.8 113.0 64 65
65 Peter Cimino 9 Menomonie (WI) 7 18:38.4 112.8 65 66
66 Jaden Karren 10 Superior (WI) 5 18:38.7 112.8 66 67
67 Ian Simetosky 11 Chippewa Falls (WI) 7 18:43.8 112.3 67 68
68 Edward Hakanson 11 Superior (WI) 6 18:44.6 112.2 68 69
69 Jager Ruedebusch 9 Hudson (OH) 7 18:46.9 112.0 69 70
70 Chase Matuszak 12 New Richmond (WI) 7 18:49.8 111.7 70 71
71 Keegan Bauer 10 Eau Claire North (WI) 7 18:53.2 111.4 71 72
72 Conner Cernohous 11 River Falls (WI) 7 19:00.4 110.7 72 73
73 Boston Miller 11 Sparta (MI) 3 19:13.1 109.4 73 74
74 Aiden Robbins 11 Superior (WI) 7 19:18.6 108.9 74 75
75 Nick Wenger 12 Eau Claire Memorial (WI) 6 19:32.5 107.6 75 76
76 Collin Erickson 11 La Crosse Central (WI) 4 19:47.5 106.3 76 77
77 Isaac Stutesman 9 La Crosse Central (WI) 5 20:20.8 103.4 77 78
78 Jordan San Miguel 10 La Crosse Central (WI) 6 20:34.7 102.2 78 79
79 Christain Perez 10 Sparta (MI) 4 20:50.1 100.9 79 80
80 Aiden Gardner 9 La Crosse Central (WI) 7 21:22.9 98.4 80 81
81 Rylen Edmond 9 Sparta (MI) 5 22:34.9 93.1 81 82
82 Charles Tempski 10 Sparta (MI) 6 23:26.4 89.7 82 83
83 Aaron McPherson 12 Sparta (MI) 7 24:21.9 86.3 83 84